Location: Newark
(51.4703°N, 6.8522°E)
Time: 20:41:50
(UTC+00:00)

N. Korean satellite - Visible Passes

Search period start: 29 January 2020 00:00
Search period end: 08 February 2020 00:00
Orbit: 454 x 507 km, 97.2° (Epoch: 29 January)

Date Brightness Start Highest point End Pass type
(mag) Time Alt. Az. Time Alt. Az. Time Alt. Az.
29 Jan 6.5 05:34:14 10° NNE 05:37:50 89° E 05:41:30 10° SSW visible
30 Jan 7.7 05:08:49 10° NNE 05:12:18 45° E 05:15:49 10° S visible
30 Jan 9.7 17:23:40 10° SW 17:26:08 18° W 17:28:39 10° NW visible
31 Jan 9.0 04:43:39 10° NE 04:46:40 24° E 04:49:42 10° SSE visible
31 Jan 7.3 06:16:52 10° N 06:20:05 31° WNW 06:23:21 10° SW visible
31 Jan 8.5 16:57:17 10° SSW 17:00:27 34° W 17:03:40 10° NNW visible
01 Feb 9.9 04:19:00 10° ENE 04:20:57 14° E 04:22:54 10° ESE visible
01 Feb 6.6 05:51:07 10° N 05:54:41 58° WNW 05:58:17 10° SSW visible
02 Feb 6.8 05:25:33 10° NNE 05:29:11 72° ESE 05:32:51 10° S visible
02 Feb 10.0 17:41:36 10° WSW 17:43:08 12° W 17:44:41 10° WNW visible
03 Feb 8.2 05:00:12 10° NNE 05:03:37 37° E 05:07:02 10° SSE visible
03 Feb 9.4 17:14:35 10° SSW 17:17:22 23° W 17:20:13 10° NW visible
04 Feb 9.3 04:35:08 10° NE 04:37:57 20° E 04:40:45 10° SE visible
04 Feb 7.1 06:08:03 10° N 06:11:28 38° WNW 06:14:54 10° SW visible
05 Feb 10.1 04:10:54 10° ENE 04:12:11 11° E 04:13:28 10° ESE visible
05 Feb 6.5 05:42:23 10° N 05:46:01 73° WNW 05:49:42 10° SSW visible
06 Feb 7.3 05:16:53 10° NNE 05:20:30 58° E 05:24:08 10° S visible
06 Feb 9.8 17:32:12 10° SW 17:34:21 15° W 17:36:31 10° NW visible
07 Feb 8.6 04:51:36 10° NNE 04:54:53 30° E 04:58:12 10° SSE visible
07 Feb 7.6 06:25:06 10° N 06:28:13 26° WNW 06:31:19 10° SW visible
07 Feb 9.0 17:05:34 10° SSW 17:08:37 28° W 17:11:43 10° NW visible
